• Join FlightAware (Why Join?)
  • Login
  • US Flag 
01:39PM EST


 

Airport Tracker/Info


-or-


 

Live Flight TrackerFlight Track Log ✈ N450S ✈ 19-Jul-2013 ✈ KBKL - KWWD

Flight Track Log - Related Links

Times and Time Zones

All times are in EDT time to prevent confusion due to time zone crossing. See the N450S flight status page for this flight to view local times or setup timezone preferences in your user account.

Time Position Orientation Groundspeed Altitude Reporting Facility
EDT Latitude Longitude Course Direction KTS MPH feet Rate Location/Type
08:46AM 41.5061 -81.7089 285° West 138 159 1,400  Level Cleveland Center
08:47AM 41.5122 -81.7394 285° West 165 190 1,900 558 Climbing Cleveland Center
08:48AM 41.5578 -81.7569 344° North 234 269 2,200 1,034 Climbing Cleveland Center
08:49AM 41.6106 -81.7106 33° Northeast 220 253 3,900 1,785 Climbing Cleveland Center
08:50AM 41.6111 -81.6414 89° East 192 221 5,800 1,779 Climbing Cleveland Center
08:51AM 41.5489 -81.6069 157° South 186 214 8,200 1,333 Climbing Cleveland Center
08:52AM 41.4928 -81.5922 169° South 185 213 9,000 400 Climbing Cleveland Center
08:53AM 41.4261 -81.5689 165° South 231 266 9,000 350 Level Cleveland Center
08:54AM 41.3642 -81.5267 153° Southeast 244 281 9,700 1,200 Climbing Cleveland Center
08:55AM 41.3208 -81.4622 132° Southeast 244 281 11,400 1,700 Climbing Cleveland Center
08:56AM 41.2753 -81.4119 140° Southeast 226 260 13,100 1,700 Climbing Cleveland Center
08:57AM 41.2381 -81.3672 138° Southeast 214 246 14,800 1,700 Climbing Cleveland Center
08:58AM 41.1947 -81.3144 137° Southeast 209 241 16,500 1,500 Climbing Cleveland Center
08:59AM 41.1617 -81.2506 124° Southeast 209 241 17,800 1,350 Climbing Cleveland Center
09:00AM 41.1308 -81.1731 118° Southeast 209 241 19,200 1,350 Climbing Cleveland Center
09:01AM 41.1083 -81.0956 111° Southeast 220 253 20,500 1,250 Climbing Cleveland Center
09:02AM 41.0858 -81.0156 110° East 220 253 21,700 1,200 Climbing Cleveland Center
09:03AM 41.0631 -80.9383 111° Southeast 226 260 22,900 650 Climbing Cleveland Center
09:04AM 41.0383 -80.8583 112° Southeast 226 260 23,000 50 Climbing Cleveland Center
09:05AM 41.0072 -80.7647 114° Southeast 248 285 23,000  Level Cleveland Center
09:06AM 40.9781 -80.6656 111° Southeast 275 316 23,000  Level Cleveland Center
09:07AM 40.9469 -80.5667 113° Southeast 285 328 23,000  Level Cleveland Center
09:08AM 40.9156 -80.4650 112° Southeast 290 334 23,000  Level Cleveland Center
09:09AM 40.8842 -80.3633 112° Southeast 296 341 23,000  Level Cleveland Center
09:10AM 40.8525 -80.2675 114° Southeast 290 334 23,000  Level Cleveland Center
09:11AM 40.8211 -80.1661 112° Southeast 290 334 23,000  Level Cleveland Center
09:12AM 40.7914 -80.0675 112° Southeast 295 339 23,000  Level Cleveland Center
09:13AM 40.7681 -79.9636 106° East 295 339 23,000  Level Cleveland Center
09:14AM 40.7528 -79.8567 101° East 290 334 23,000  Level Cleveland Center
09:15AM 40.7394 -79.7500 99° East 290 334 23,000  Level Cleveland Center
09:16AM 40.7219 -79.6433 102° East 290 334 23,000  Level Cleveland Center
09:17AM 40.7086 -79.5422 100° East 295 339 23,000  Level Cleveland Center
09:18AM 40.6911 -79.4358 102° East 295 339 23,000  Level Cleveland Center
09:19AM 40.6753 -79.3319 101° East 295 339 23,000  Level Cleveland Center
09:20AM 40.6594 -79.2283 101° East 295 339 23,000  Level Cleveland Center
09:21AM 40.6436 -79.1247 101° East 295 339 23,000  Level Cleveland Center
09:22AM 40.6256 -79.0183 103° East 295 339 23,000  Level Cleveland Center
09:23AM 40.6097 -78.9256 103° East 295 339 23,000  Level Cleveland Center
09:24AM 40.5933 -78.8194 101° East 295 339 23,000  Level Cleveland Center
09:25AM 40.5772 -78.7189 102° East 295 339 23,000  Level Cleveland Center
09:26AM 40.5586 -78.6044 102° East 295 339 23,000  Level Cleveland Center
09:27AM 40.5422 -78.4983 101° East 295 339 23,000  Level Cleveland Center
09:28AM 40.5256 -78.3950 102° East 295 339 23,000  Level Cleveland Center
09:30AM 40.5003 -78.2447 102° East 298 343 23,000 -41 Level New York Center
09:31AM 40.4839 -78.1419 102° East 298 343 22,900 -446 Descending New York Center
09:32AM 40.4656 -78.0336 103° East 298 343 22,100 -504 Descending New York Center
09:33AM 40.4492 -77.9256 101° East 304 350 21,900 -605 Descending New York Center
09:34AM 40.4286 -77.8142 104° East 304 350 20,900 -885 Descending New York Center
09:35AM 40.4119 -77.7117 102° East 304 350 20,100 -864 Descending New York Center
09:36AM 40.3956 -77.5981 101° East 309 356 19,200 -559 Descending New York Center
09:37AM 40.3711 -77.4786 105° East 314 361 19,000 -98 Descending New York Center
09:38AM 40.3553 -77.3872 103° East 296 341 19,000 -303 Level New York Center
09:39AM 40.3367 -77.2736 102° East 291 335 18,400 -605 Descending New York Center
09:40AM 40.3189 -77.1767 103° East 298 343 17,800 -590 Descending New York Center
09:41AM 40.2981 -77.0606 103° East 298 343 17,200 -397 Descending New York Center
09:42AM 40.2608 -76.9753 120° Southeast 298 343 17,000 -99 Descending New York Center
09:43AM 40.2183 -76.8711 118° Southeast 298 343 17,000  Level New York Center
09:44AM 40.1814 -76.7781 117° Southeast 293 337 17,000  Level New York Center
09:45AM 40.1422 -76.6878 120° Southeast 288 331 17,000  Level New York Center
09:46AM 40.1089 -76.6061 118° Southeast 281 323 17,000  Level New York Center
09:47AM 40.0656 -76.5103 121° Southeast 286 329 17,000  Level New York Center
09:48AM 40.0303 -76.4206 117° Southeast 286 329 17,000  Level New York Center
09:49AM 40.0053 -76.3319 110° East 286 329 17,000  Level New York Center
09:50AM 39.9850 -76.2328 105° East 281 323 17,000 -344 Level New York Center
09:51AM 39.9628 -76.1253 105° East 286 329 16,300 -600 Descending New York Center
09:53AM 39.8675 -75.9106 120° Southeast 285 328 15,000 -693 Descending Washington Center
09:54AM 39.8175 -75.8292 129° Southeast 290 334 14,000 -1,000 Descending Washington Center
09:55AM 39.7656 -75.7453 129° Southeast 295 339 13,000 -496 Descending Washington Center
09:56AM 39.7178 -75.6725 130° Southeast 285 328 13,000  Level Washington Center
09:57AM 39.6656 -75.6022 134° Southeast 274 315 13,000  Level Washington Center
09:58AM 39.5969 -75.5861 170° South 247 284 13,000  Level Washington Center
09:59AM 39.5281 -75.5728 172° South 247 284 13,000  Level Washington Center
10:00AM 39.4614 -75.5511 166° South 247 284 13,000  Level Washington Center
10:01AM 39.4133 -75.4814 132° Southeast 238 274 13,000  Level Washington Center
10:02AM 39.3675 -75.4089 129° Southeast 250 288 13,000 -446 Level Washington Center
10:03AM 39.3172 -75.3394 133° Southeast 255 293 12,100 -1,350 Descending Washington Center
10:04AM 39.2631 -75.2619 132° Southeast 266 306 10,300 -1,866 Descending Washington Center
10:05AM 39.2086 -75.1872 133° Southeast 282 325 8,400 -1,884 Descending Washington Center
10:06AM 39.1603 -75.1178 132° Southeast 288 331 6,500 -1,866 Descending Washington Center
10:07AM 39.1081 -75.0486 134° Southeast 288 331 4,700 -1,862 Descending Washington Center
10:14AM 39.0358 -74.9489 139° Southeast  Level FlightAware Approximate
10:21AM 39.0085 -74.9086 322° Northwest  Level Estimated
10:22AM 39.0085 -74.9086 322° Northwest  Level Estimated
10:23AM 39.0085 -74.9086 322° Northwest  Level Estimated
10:24AM 39.0085 -74.9086 322° Northwest  Level Estimated
10:25AM 39.0085 -74.9086 322° Northwest  Level Estimated
10:26AM 39.0085 -74.9086 322° Northwest  Level Estimated
10:27AM 39.0085 -74.9086 322° Northwest  Level Estimated
10:28AM 39.0085 -74.9086 322° Northwest  Level Estimated